Radiation Dose at Monitoring Post of Fukushima Daini Nuclear Power Station
Date,Time,MP-1(microSv/h),MP-2(microSv/h),MP-3(microSv/h),MP-4(microSv/h),MP-5(microSv/h),MP-6(microSv/h),MP-7(microSv/h),Wind Direction,Wind Velocity(m/s),Rain
2024/06/21,00:00,0.146,0.131,0.213,0.199,0.205,0.115,0.075,south-southwest,4.4,No
2024/06/21,00:10,0.147,0.130,0.211,0.199,0.208,0.115,0.075,south,4.1,No
2024/06/21,00:20,0.147,0.131,0.213,0.200,0.206,0.115,0.075,south,4.7,No
2024/06/21,00:30,0.148,0.130,0.212,0.199,0.207,0.116,0.075,south-southwest,5.2,No
2024/06/21,00:40,0.147,0.131,0.214,0.200,0.209,0.116,0.076,south-southwest,5.0,No
2024/06/21,00:50,0.147,0.131,0.213,0.199,0.205,0.116,0.076,south-southwest,4.5,No
2024/06/21,01:00,0.148,0.131,0.214,0.200,0.209,0.116,0.076,south-southwest,2.2,No
2024/06/21,01:10,0.147,0.131,0.214,0.201,0.207,0.117,0.075,southwest,2.8,No
2024/06/21,01:20,0.148,0.130,0.213,0.199,0.207,0.115,0.076,southwest,2.0,No
2024/06/21,01:30,0.146,0.132,0.214,0.200,0.208,0.117,0.075,west,1.5,No
2024/06/21,01:40,0.148,0.131,0.213,0.199,0.207,0.116,0.075,north-northwest,2.6,No
2024/06/21,01:50,0.148,0.132,0.215,0.200,0.208,0.116,0.075,northwest,3.6,No
2024/06/21,02:00,0.147,0.131,0.211,0.199,0.206,0.117,0.075,north-northwest,3.5,No
2024/06/21,02:10,0.148,0.131,0.215,0.200,0.206,0.116,0.076,north,2.0,No
2024/06/21,02:20,0.148,0.130,0.213,0.200,0.209,0.117,0.076,north,1.0,No
2024/06/21,02:30,0.148,0.132,0.215,0.200,0.206,0.116,0.076,-,CALM,No
2024/06/21,02:40,0.148,0.130,0.212,0.200,0.208,0.117,0.076,-,CALM,No
2024/06/21,02:50,0.148,0.131,0.213,0.199,0.206,0.116,0.076,-,CALM,No
2024/06/21,03:00,0.147,0.131,0.213,0.200,0.208,0.116,0.076,-,CALM,No
2024/06/21,03:10,0.148,0.130,0.213,0.198,0.207,0.116,0.076,north,0.9,No
2024/06/21,03:20,0.148,0.131,0.213,0.201,0.207,0.115,0.075,north-northeast,0.8,No
2024/06/21,03:30,0.147,0.131,0.214,0.199,0.209,0.116,0.076,north-northeast,1.9,No
2024/06/21,03:40,0.147,0.131,0.213,0.200,0.205,0.115,0.076,north-northeast,1.3,No
2024/06/21,03:50,0.146,0.130,0.213,0.199,0.208,0.117,0.076,north,1.6,No
2024/06/21,04:00,0.148,0.131,0.214,0.199,0.206,0.116,0.076,north-northwest,1.4,No
2024/06/21,04:10,0.148,0.130,0.213,0.199,0.206,0.116,0.076,north,0.9,No
2024/06/21,04:20,0.148,0.131,0.213,0.199,0.208,0.116,0.076,north,1.0,No
2024/06/21,04:30,0.148,0.130,0.213,0.200,0.205,0.116,0.075,north-northwest,1.0,No
2024/06/21,04:40,0.147,0.131,0.213,0.199,0.208,0.116,0.076,north-northwest,1.3,No
2024/06/21,04:50,0.147,0.131,0.212,0.199,0.206,0.115,0.076,north-northeast,0.7,No
2024/06/21,05:00,0.147,0.132,0.213,0.199,0.207,0.116,0.077,-,CALM,No
2024/06/21,05:10,0.148,0.130,0.211,0.201,0.208,0.115,0.076,southeast,0.7,No
2024/06/21,05:20,0.148,0.131,0.213,0.197,0.205,0.117,0.076,southeast,0.9,No
2024/06/21,05:30,0.148,0.130,0.212,0.199,0.208,0.116,0.077,south-southeast,1.2,No
2024/06/21,05:40,0.148,0.132,0.213,0.199,0.207,0.116,0.077,south-southeast,1.8,No
2024/06/21,05:50,0.148,0.131,0.213,0.199,0.208,0.117,0.077,south-southeast,1.2,No
2024/06/21,06:00,0.148,0.131,0.213,0.200,0.209,0.117,0.077,south-southwest,1.7,No
2024/06/21,06:10,0.148,0.132,0.213,0.198,0.206,0.117,0.077,south,1.3,No
2024/06/21,06:20,0.148,0.132,0.213,0.200,0.208,0.116,0.076,south,1.9,No
2024/06/21,06:30,0.148,0.133,0.215,0.200,0.208,0.116,0.076,south,1.8,No
2024/06/21,06:40,0.146,0.132,0.213,0.198,0.206,0.118,0.076,south,3.2,No
2024/06/21,06:50,0.149,0.131,0.211,0.200,0.208,0.117,0.077,south,3.6,No
2024/06/21,07:00,0.149,0.131,0.215,0.199,0.208,0.116,0.076,south,3.2,No
2024/06/21,07:10,0.147,0.131,0.213,0.198,0.206,0.116,0.076,south,2.2,No
2024/06/21,07:20,0.147,0.129,0.211,0.200,0.205,0.116,0.075,south,3.7,No
2024/06/21,07:30,0.147,0.131,0.212,0.199,0.208,0.115,0.075,south,5.0,No
2024/06/21,07:40,0.147,0.130,0.213,0.197,0.206,0.116,0.075,south,6.5,No
2024/06/21,07:50,0.145,0.129,0.210,0.198,0.204,0.116,0.075,south,6.8,No
2024/06/21,08:00,0.147,0.130,0.212,0.200,0.206,0.114,0.075,south,6.9,No
2024/06/21,08:10,0.147,0.130,0.213,0.198,0.208,0.116,0.075,south,7.3,No
2024/06/21,08:20,0.146,0.130,0.210,0.196,0.205,0.115,0.075,south,6.8,No
2024/06/21,08:30,0.145,0.128,0.210,0.198,0.204,0.115,0.076,south-southeast,6.4,No
2024/06/21,08:40,0.147,0.131,0.213,0.199,0.208,0.114,0.075,south,7.2,No
2024/06/21,08:50,0.147,0.130,0.213,0.198,0.207,0.116,0.074,south-southeast,6.9,No
2024/06/21,09:00,0.146,0.130,0.211,0.196,0.205,0.115,0.074,south-southeast,7.6,No
2024/06/21,09:10,0.145,0.129,0.210,0.196,0.204,0.115,0.075,south,7.7,No
2024/06/21,09:20,0.145,0.129,0.209,0.196,0.204,0.116,0.074,south-southeast,7.0,No
2024/06/21,09:30,0.145,0.130,0.208,0.199,0.205,0.115,0.074,south,7.8,No
2024/06/21,09:40,0.146,0.130,0.211,0.199,0.207,0.115,0.075,south,7.8,No
2024/06/21,09:50,0.147,0.129,0.213,0.197,0.206,0.114,0.075,south,6.9,No
2024/06/21,10:00,0.145,0.129,0.211,0.196,0.204,0.116,0.074,south-southeast,7.5,No
2024/06/21,10:10,0.144,0.129,0.209,0.198,0.204,0.115,0.075,south,7.6,No
2024/06/21,10:20,0.144,0.130,0.210,0.200,0.203,0.115,0.074,south,7.6,No
2024/06/21,10:30,0.147,0.129,0.211,0.200,0.207,0.114,0.075,south,8.1,No
2024/06/21,10:40,0.146,0.130,0.213,0.198,0.207,0.116,0.075,south,8.4,No
2024/06/21,10:50,0.145,0.128,0.212,0.196,0.204,0.115,0.074,south-southeast,8.5,No
2024/06/21,11:00,0.145,0.130,0.209,0.198,0.204,0.114,0.075,south,8.7,No
2024/06/21,11:10,0.146,0.129,0.210,0.199,0.206,0.114,0.075,south,6.9,No
2024/06/21,11:20,0.146,0.129,0.213,0.199,0.206,0.116,0.074,south,7.6,No
2024/06/21,11:30,0.145,0.128,0.212,0.197,0.205,0.114,0.074,south,7.8,No
2024/06/21,11:40,0.145,0.130,0.210,0.199,0.204,0.115,0.074,south-southeast,8.3,No
2024/06/21,11:50,0.147,0.130,0.211,0.200,0.207,0.115,0.075,south,7.4,No
2024/06/21,12:00,0.147,0.128,0.214,0.198,0.206,0.114,0.074,south,5.7,No
2024/06/21,12:10,0.146,0.130,0.211,0.197,0.206,0.115,0.074,south,6.2,No
2024/06/21,12:20,0.144,0.130,0.210,0.200,0.204,0.114,0.075,south,6.9,No
2024/06/21,12:30,0.146,0.129,0.212,0.199,0.208,0.115,0.074,south,6.7,No
2024/06/21,12:40,0.146,0.129,0.213,0.198,0.206,0.115,0.075,south-southeast,6.2,No
2024/06/21,12:50,0.145,0.130,0.211,0.199,0.204,0.115,0.075,south,6.3,Yes
2024/06/21,13:00,0.146,0.129,0.211,0.200,0.207,0.114,0.074,south,6.2,No
2024/06/21,13:10,0.147,0.128,0.213,0.197,0.207,0.115,0.074,south-southeast,5.8,Yes
2024/06/21,13:20,0.146,0.130,0.212,0.198,0.204,0.115,0.075,south,5.5,Yes
2024/06/21,13:30,0.146,0.130,0.210,0.200,0.205,0.115,0.075,south,5.4,Yes
2024/06/21,13:40,0.147,0.129,0.213,0.198,0.208,0.114,0.075,south-southeast,5.2,Yes
2024/06/21,13:50,0.146,0.130,0.212,0.199,0.205,0.117,0.075,south-southeast,5.5,Yes
2024/06/21,14:00,0.146,0.131,0.210,0.201,0.206,0.117,0.076,south-southeast,6.7,Yes
2024/06/21,14:10,0.148,0.131,0.215,0.201,0.208,0.116,0.076,south-southeast,6.1,Yes
2024/06/21,14:20,0.148,0.131,0.213,0.198,0.206,0.118,0.077,south-southeast,6.8,Yes
2024/06/21,14:30,0.147,0.131,0.214,0.202,0.207,0.116,0.077,south,6.8,Yes
2024/06/21,14:40,0.149,0.131,0.214,0.199,0.208,0.116,0.077,south,5.7,Yes
2024/06/21,14:50,0.148,0.132,0.213,0.201,0.204,0.118,0.076,south,7.2,Yes
2024/06/21,15:00,0.149,0.130,0.214,0.201,0.208,0.117,0.077,south,6.3,Yes
2024/06/21,15:10,0.148,0.131,0.211,0.198,0.204,0.118,0.077,south,5.4,Yes
2024/06/21,15:20,0.148,0.131,0.213,0.200,0.207,0.118,0.078,south,4.1,Yes
2024/06/21,15:30,0.148,0.131,0.212,0.197,0.207,0.117,0.077,south-southeast,4.0,Yes
2024/06/21,15:40,0.147,0.130,0.213,0.200,0.205,0.117,0.077,south-southeast,3.2,Yes
2024/06/21,15:50,0.148,0.131,0.211,0.198,0.207,0.117,0.077,south-southeast,2.3,Yes
2024/06/21,16:00,0.147,0.130,0.210,0.197,0.205,0.117,0.077,south-southeast,1.2,Yes
2024/06/21,16:10,0.147,0.130,0.210,0.199,0.207,0.116,0.077,south-southwest,0.6,Yes
2024/06/21,16:20,0.147,0.130,0.210,0.197,0.204,0.117,0.076,-,CALM,Yes
2024/06/21,16:30,0.147,0.130,0.212,0.199,0.206,0.117,0.077,north-northwest,1.1,Yes
2024/06/21,16:40,0.148,0.131,0.211,0.197,0.205,0.117,0.077,northwest,2.4,Yes
2024/06/21,16:50,0.146,0.131,0.211,0.199,0.205,0.117,0.078,northwest,3.5,Yes
2024/06/21,17:00,0.148,0.132,0.210,0.197,0.207,0.118,0.077,northwest,3.0,Yes
2024/06/21,17:10,0.146,0.130,0.210,0.198,0.204,0.118,0.078,northwest,2.7,Yes
2024/06/21,17:20,0.147,0.131,0.210,0.197,0.206,0.116,0.077,north-northwest,2.1,Yes
2024/06/21,17:30,0.147,0.129,0.208,0.196,0.204,0.117,0.077,northwest,1.6,Yes
2024/06/21,17:40,0.145,0.130,0.210,0.197,0.203,0.116,0.076,north,2.5,No
2024/06/21,17:50,0.145,0.128,0.207,0.195,0.204,0.115,0.075,north-northeast,1.8,No
2024/06/21,18:00,0.144,0.128,0.209,0.195,0.202,0.115,0.075,northeast,1.7,No
2024/06/21,18:10,0.146,0.128,0.206,0.195,0.205,0.114,0.074,north,1.5,No
2024/06/21,18:20,0.145,0.127,0.208,0.194,0.201,0.115,0.074,north,2.4,No
2024/06/21,18:30,0.144,0.128,0.207,0.195,0.203,0.114,0.074,north-northeast,2.4,No
2024/06/21,18:40,0.146,0.128,0.207,0.193,0.204,0.113,0.074,north-northeast,3.5,Yes
2024/06/21,18:50,0.144,0.127,0.207,0.195,0.202,0.114,0.074,northeast,3.1,No
2024/06/21,19:00,0.145,0.127,0.206,0.193,0.203,0.113,0.073,north-northeast,3.7,No
2024/06/21,19:10,0.143,0.128,0.208,0.194,0.201,0.113,0.074,north-northeast,3.9,No
2024/06/21,19:20,0.144,0.127,0.206,0.194,0.204,0.114,0.074,north-northeast,4.6,No
2024/06/21,19:30,0.144,0.126,0.207,0.193,0.202,0.113,0.074,north-northeast,3.8,No
2024/06/21,19:40,0.143,0.127,0.207,0.195,0.202,0.113,0.074,north-northeast,3.9,No
2024/06/21,19:50,0.144,0.128,0.207,0.194,0.202,0.113,0.074,north,5.4,No
2024/06/21,20:00,0.142,0.128,0.205,0.194,0.203,0.114,0.073,north-northwest,6.5,No
2024/06/21,20:10,0.144,0.126,0.208,0.192,0.203,0.114,0.074,north-northwest,7.2,No
2024/06/21,20:20,0.144,0.129,0.207,0.194,0.204,0.114,0.073,north-northwest,7.4,No
2024/06/21,20:30,0.144,0.127,0.207,0.193,0.203,0.113,0.074,north-northwest,7.5,No
2024/06/21,20:40,0.143,0.128,0.207,0.195,0.202,0.114,0.074,north-northwest,7.7,No
2024/06/21,20:50,0.145,0.126,0.206,0.192,0.204,0.114,0.074,north-northwest,9.2,No
2024/06/21,21:00,0.142,0.128,0.206,0.194,0.202,0.114,0.074,north-northwest,10.3,No
2024/06/21,21:10,0.145,0.128,0.207,0.193,0.204,0.113,0.074,north-northwest,9.2,No
2024/06/21,21:20,0.143,0.128,0.206,0.194,0.202,0.113,0.073,north-northwest,9.0,No
2024/06/21,21:30,0.144,0.127,0.207,0.194,0.203,0.113,0.073,north-northwest,7.6,No
2024/06/21,21:40,0.144,0.128,0.207,0.193,0.201,0.114,0.073,north-northwest,8.2,No
2024/06/21,21:50,0.143,0.128,0.206,0.192,0.204,0.115,0.074,north-northwest,7.1,No
2024/06/21,22:00,0.144,0.128,0.207,0.193,0.201,0.114,0.074,north,7.1,No
2024/06/21,22:10,0.144,0.127,0.206,0.193,0.201,0.114,0.074,north,5.9,No
2024/06/21,22:20,0.144,0.127,0.206,0.194,0.201,0.112,0.073,north-northeast,5.6,No
2024/06/21,22:30,0.144,0.127,0.206,0.192,0.203,0.113,0.073,north-northeast,4.0,No
2024/06/21,22:40,0.144,0.128,0.207,0.194,0.202,0.113,0.073,north-northwest,6.1,No
2024/06/21,22:50,0.143,0.126,0.206,0.192,0.203,0.114,0.073,north,6.4,No
2024/06/21,23:00,0.145,0.127,0.205,0.195,0.202,0.113,0.074,north-northwest,6.4,No
2024/06/21,23:10,0.144,0.127,0.206,0.193,0.202,0.113,0.073,north-northwest,7.2,No
2024/06/21,23:20,0.144,0.128,0.207,0.194,0.202,0.113,0.073,north-northwest,7.2,No
2024/06/21,23:30,0.144,0.127,0.205,0.193,0.202,0.113,0.073,north-northwest,6.0,No
2024/06/21,23:40,0.145,0.128,0.207,0.194,0.202,0.113,0.074,north-northwest,5.8,No
2024/06/21,23:50,0.143,0.127,0.207,0.193,0.203,0.114,0.073,north-northwest,6.8,No
